Temperature
27 26 26 26 25 24 24 24 24 24 24 25 24 24 23 22 22 21 20 20 19 18 18 17 17 16 16 15 15 14 14 13 13 12 12 12 11 11 11 11 11 11 11 11
26 26 26 25 25 25 24 24 24 24 24 25 25 24 23 23 22 21 21 20 19 19 18 18 17 17 16 16 15 14 14 13 13 12 12 12 12 11 11 11 11 11 11 11
25 26 25 24 25 25 25 25 25 24 25 25 24 24 23 23 22 21 21 20 20 19 19 18 18 17 17 16 15 15 14 14 13 13 12 12 12 11 11 11 11 11 11 11
25 25 24 26 27 27 26 25 26 25 25 25 24 24 23 22 22 21 21 20 20 19 19 18 18 17 17 16 16 15 15 14 13 13 12 12 12 12 11 11 11 11 11 11
25 25 26 25 26 26 25 25 26 26 25 25 24 24 23 22 21 21 21 20 19 19 19 18 18 18 17 17 16 16 15 14 14 13 13 12 12 12 12 12 11 11 11 11
25 24 25 26 26 26 26 24 26 26 25 25 24 23 22 22 21 21 20 19 19 19 18 18 18 17 17 17 17 16 15 15 14 14 13 13 12 12 12 12 12 12 11 11
23 24 26 25 25 25 23 24 26 25 25 24 24 22 22 21 20 20 19 19 18 18 18 18 18 17 17 17 17 16 15 15 14 14 14 13 13 13 12 12 12 12 12 12
24 23 24 25 25 25 25 25 25 25 24 24 23 22 21 21 20 19 19 18 18 18 18 17 17 17 16 16 16 16 15 15 14 14 14 14 13 13 13 13 13 12 12 12
26 24 24 25 25 24 24 25 24 24 23 22 22 21 21 20 20 19 19 18 18 18 17 17 17 17 16 16 16 15 15 15 15 14 14 14 14 14 13 13 13 13 13 12
26 25 24 24 23 22 23 23 23 22 22 21 21 21 20 20 19 19 19 18 18 18 17 17 17 17 16 16 16 15 15 15 15 15 15 15 14 14 14 14 13 13 13 13
25 25 24 23 23 22 22 21 21 21 21 21 20 20 20 19 19 18 18 18 18 17 17 17 17 17 16 16 16 15 15 15 15 15 15 15 15 14 14 14 14 14 14 13
25 26 25 24 23 22 21 21 21 20 20 19 19 19 19 18 18 17 17 17 17 17 16 16 16 16 16 16 16 15 15 15 15 15 15 15 15 15 14 14 14 14 14 14
26 26 25 24 22 21 21 20 20 19 19 18 18 18 18 17 17 16 16 16 16 16 15 15 15 15 15 15 15 15 14 14 14 14 15 15 14 14 14 14 14 14 14 14
25 24 22 21 21 20 20 19 19 18 18 17 17 17 16 16 16 15 15 15 15 14 14 14 14 14 14 14 14 14 13 13 13 14 14 14 14 14 14 14 14 14 14 14
23 23 22 21 20 19 19 18 17 17 16 16 15 15 15 15 14 14 14 13 13 13 13 12 13 12 12 13 13 12 12 12 12 13 13 13 13 13 13 13 14 14 14 14
22 21 21 20 19 18 18 17 17 16 15 15 14 14 14 14 13 13 12 12 12 12 11 11 11 11 11 11 12 11 11 11 11 11 12 12 12 12 12 13 13 13 13 13
21 20 19 19 18 17 17 17 16 15 15 14 14 13 13 12 12 12 11 11 11 10 10 10 10 9 10 10 10 10 10 10 10 10 10 11 11 11 11 11 12 12 12 12
22 21 20 19 18 17 16 16 16 15 14 13 13 12 12 12 11 11 10 10 10 9 9 9 9 8 9 9 9 9 9 9 9 9 9 9 9 10 10 10 10 10 10 11
20 19 19 18 17 16 16 15 14 13 13 12 12 12 11 11 10 10 10 9 9 8 8 8 8 8 8 8 8 8 8 8 8 8 8 8 8 8 8 8 8 8 9 9
18 18 17 16 16 15 14 13 13 12 11 11 11 10 10 10 10 9 9 8 8 7 7 7 7 7 7 7 7 7 7 7 7 7 7 7 7 7 7 7 7 7 7 7
16 15 15 14 14 13 12 12 11 11 10 10 10 10 9 9 9 8 8 7 7 7 7 7 7 7 7 7 6 6 6 6 6 6 6 6 6 6 5 5 5 5 5 5
14 13 13 12 12 11 11 11 10 10 10 9 9 9 8 8 8 8 7 7 7 7 6 6 6 6 6 6 6 6 6 6 6 5 5 5 5 5 5 5 5 4 4 4
12 12 11 11 11 10 10 10 9 9 9 8 8 8 8 8 8 7 7 6 6 6 6 6 6 6 6 6 6 6 6 6 5 5 5 5 4 4 4 4 4 4 3 3
11 11 10 10 10 10 9 9 9 8 8 8 8 8 7 7 7 7 7 6 6 6 6 5 6 5 5 5 5 5 5 5 5 5 4 4 4 4 4 3 3 3 3 3
10 10 10 10 9 9 9 8 8 8 7 7 7 7 7 7 7 6 6 6 6 6 5 5 5 5 5 5 5 5 5 5 4 4 4 4 3 3 3 3 3 2 2 2
10 10 9 9 9 9 8 8 8 7 7 7 7 7 7 6 6 6 6 6 5 5 5 5 5 5 5 5 5 4 4 4 4 4 4 3 3 3 3 2 2 2 2 1
9 9 9 9 8 8 8 8 7 7 7 7 7 7 7 6 6 6 6 6 5 5 5 5 5 5 5 5 4 4 4 4 3 3 3 3 2 2 2 2 1 1 1 1
Wind_Speed
3 0 2 3 5 8 9 8 6 5 5 4 4 4 2 2 3 3 3 3 4 5 4 3 4 4 3 3 2 1 1 1 2 4 5 5 5 5 6 7 7 6 7 7
5 4 5 7 8 9 9 8 8 8 5 2 4 2 1 2 3 3 3 3 3 4 4 3 4 3 3 3 2 1 1 1 2 1 3 4 5 5 5 5 5 5 5 6
7 6 6 9 13 13 10 8 7 7 2 3 2 1 1 1 1 2 2 2 2 3 3 3 2 2 3 2 1 1 0 1 1 1 2 3 5 5 5 5 5 5 5 5
7 5 7 1 4 7 9 9 7 5 1 1 1 1 1 1 0 1 2 2 3 3 3 3 3 4 4 4 3 1 1 0 1 1 1 2 3 4 4 4 5 5 5 4
6 8 6 6 6 6 6 7 8 6 3 2 0 3 4 4 2 2 3 2 2 1 1 2 2 3 2 3 4 3 2 1 1 1 1 2 3 3 3 3 4 4 4 4
6 6 5 4 11 7 4 5 7 6 4 3 3 2 4 6 5 4 4 3 2 1 1 0 2 3 1 3 2 3 3 1 1 0 1 2 3 3 3 4 4 4 4 4
8 7 2 9 10 8 4 1 8 6 4 3 1 5 6 5 5 4 4 3 1 0 0 1 1 1 3 3 1 2 3 1 2 2 3 4 3 4 5 4 4 5 6 5
7 7 4 10 8 5 4 7 6 6 4 4 5 6 5 4 4 4 4 4 2 1 1 1 0 1 3 2 1 2 2 2 4 5 5 4 4 5 5 5 6 6 5 4
4 2 6 6 4 4 3 4 5 5 5 5 4 4 4 4 4 3 3 4 3 2 1 2 3 3 3 3 1 2 3 5 6 6 6 6 6 6 5 5 5 5 4 4
4 5 8 7 5 5 2 3 4 4 5 4 3 4 4 4 3 3 2 2 2 2 2 3 2 3 3 3 3 4 5 6 6 6 6 5 5 5 4 4 4 4 4 4
8 4 5 7 7 7 6 5 5 5 4 4 3 4 4 4 4 3 2 2 2 1 1 2 2 0 0 1 3 5 6 6 6 6 5 4 4 5 6 5 5 5 5 4
7 7 8 8 11 11 9 8 7 7 6 5 4 4 4 5 5 4 4 3 3 3 3 3 4 5 4 3 3 5 6 6 4 3 3 4 5 5 9 10 11 12 12 9
8 3 1 8 11 11 10 9 8 7 7 7 5 5 5 6 5 5 4 5 5 5 5 5 6 8 8 8 7 6 6 6 5 4 4 4 4 5 6 7 12 13 13 14
5 6 6 7 8 10 10 10 9 8 7 7 6 6 6 7 6 6 5 5 6 6 7 7 7 9 9 9 8 8 7 7 6 5 5 5 5 5 5 5 5 5 10 16
7 7 6 8 10 11 10 11 11 10 9 8 7 6 6 7 7 6 5 5 7 8 8 8 8 8 8 9 9 8 6 5 6 6 6 6 6 6 6 6 6 5 5 6
9 7 8 11 13 13 13 13 12 11 10 9 8 8 8 8 7 7 6 6 7 8 8 8 7 7 7 9 9 7 6 9 8 6 6 6 6 6 6 6 6 5 5 4
11 12 12 13 14 14 14 13 12 12 11 10 9 9 9 9 8 7 7 7 8 8 8 7 7 7 8 9 9 7 6 8 10 7 6 6 7 7 8 8 8 7 7 8
13 12 13 14 14 14 13 12 11 12 11 11 10 9 8 8 8 7 6 7 8 8 7 7 7 7 7 9 9 6 6 6 6 7 7 7 8 7 7 7 9 9 9 10
7 8 10 12 12 12 12 11 12 12 11 11 10 8 8 8 7 7 7 7 7 6 6 6 8 7 7 10 11 6 6 7 7 7 7 9 9 8 8 9 9 9 10 10
5 6 9 11 12 11 11 12 12 11 10 10 10 9 8 7 7 7 8 7 6 4 4 5 6 7 8 10 12 6 6 7 7 7 7 7 7 8 8 9 9 10 10 10
6 8 10 11 11 12 12 12 11 11 10 9 9 9 8 7 6 6 6 6 6 4 4 3 4 5 6 10 10 5 5 5 6 6 6 6 7 7 7 8 8 8 9 9
7 9 10 11 11 11 11 11 11 10 9 9 9 9 8 7 7 6 6 5 5 3 2 3 4 6 10 11 6 4 4 4 4 4 5 5 5 6 6 7 7 7 7 8
8 9 10 11 12 11 11 11 10 9 9 8 8 8 7 5 5 5 5 4 4 3 2 2 3 7 11 8 5 5 4 4 4 5 5 5 5 5 6 6 6 6 6 7
9 10 10 10 11 11 11 11 10 8 8 7 6 6 6 5 4 4 5 6 4 1 1 1 3 7 9 5 4 4 4 4 4 4 5 5 5 5 5 6 6 6 7 8
9 10 10 10 10 8 9 10 10 9 8 6 6 6 4 3 3 3 3 4 5 3 2 3 5 7 5 4 4 4 5 4 4 4 4 5 5 5 5 6 6 7 7 7
8 7 7 8 7 6 7 7 7 7 6 6 5 5 4 4 4 3 2 3 3 3 3 3 4 5 3 2 3 4 5 5 5 4 5 5 5 5 6 6 9 7 7 7
8 7 5 5 5 5 6 6 6 6 6 6 5 5 4 4 4 3 2 2 2 2 2 2 3 3 3 3 3 4 4 4 4 5 5 5 5 5 6 7 7 7 7 7
Wind_Direction
266 41 306 243 208 204 229 257 289 339 355 359 55 67 67 145 170 186 196 196 192 186 204 198 201 199 187 169 179 165 106 45 28 0 360 358 349 350 359 354 351 359 3 5
251 222 235 250 236 222 226 244 263 288 299 69 89 110 172 191 167 186 207 207 201 200 192 206 216 188 162 156 164 181 182 125 90 2 356 348 341 351 353 337 339 357 357 3
261 212 223 248 226 215 219 223 233 254 276 67 28 6 9 39 136 187 201 178 189 220 191 197 194 117 109 105 124 206 164 123 113 35 0 344 344 347 337 336 355 350 347 353
263 207 236 109 91 178 207 221 224 241 286 48 360 52 105 110 66 169 147 154 174 203 176 192 180 146 147 168 191 180 116 262 175 167 290 323 326 322 322 341 343 333 332 338
263 259 248 165 157 165 191 217 204 216 204 162 209 221 183 138 101 79 90 104 126 175 182 193 141 122 185 196 179 166 160 260 247 177 197 295 305 305 314 321 314 313 319 323
266 268 273 126 134 142 186 234 178 174 163 152 238 249 105 102 100 92 88 82 78 112 283 260 121 115 275 272 211 161 158 217 275 171 216 267 289 300 298 289 286 294 297 296
260 266 264 113 125 141 202 149 134 141 145 163 91 74 92 94 101 104 107 105 92 269 329 5 46 126 249 279 341 101 108 64 300 273 248 236 245 271 284 286 290 285 278 262
222 239 223 142 155 178 107 108 117 120 115 99 84 90 97 97 106 118 129 136 159 227 191 158 325 293 280 288 15 82 133 222 255 259 261 258 233 246 261 271 279 279 277 278
217 151 106 148 139 89 75 120 111 112 106 111 123 120 109 106 110 123 135 147 161 194 221 228 207 198 263 288 262 221 214 228 240 248 242 235 236 244 252 256 261 277 285 286
260 170 168 175 149 142 144 111 100 109 122 136 140 124 118 114 106 108 112 118 140 182 211 246 238 180 207 253 257 253 244 236 236 243 245 238 224 227 240 253 265 278 289 293
245 213 162 184 183 174 164 160 154 141 130 125 123 114 113 110 96 85 80 79 94 73 14 337 325 322 147 294 295 284 275 258 247 243 237 239 240 234 236 237 229 234 248 264
235 219 209 197 185 176 171 174 168 153 139 128 123 116 108 96 84 72 60 56 69 63 46 0 354 14 21 4 335 316 310 309 303 295 270 244 245 256 241 235 239 233 232 235
249 288 122 133 152 165 172 170 162 154 144 137 126 116 111 104 94 82 70 57 54 54 47 32 25 23 17 7 353 335 320 315 312 308 305 294 279 268 275 262 244 245 245 243
157 131 131 146 156 169 169 159 152 143 135 129 123 119 114 107 98 85 69 63 63 59 50 42 37 28 11 0 351 338 331 332 334 321 312 302 294 288 281 280 278 263 246 240
188 187 177 162 161 168 163 159 158 154 146 137 131 127 119 112 103 91 74 65 72 65 53 45 39 24 8 359 348 339 339 343 339 329 317 307 299 294 290 287 282 277 275 249
199 196 175 169 171 173 173 174 171 162 153 146 139 130 118 110 104 95 81 73 74 65 53 44 30 16 13 5 348 341 340 346 343 327 324 330 330 325 321 317 313 310 306 308
197 197 189 185 182 182 182 180 170 159 152 146 141 134 131 126 117 108 98 88 82 70 58 44 15 4 22 16 353 344 346 348 350 349 350 354 347 345 349 351 350 347 342 342
208 203 193 188 184 180 179 172 160 152 147 142 140 141 139 132 124 117 109 102 95 78 57 38 9 1 28 24 354 343 351 356 356 356 358 1 356 355 355 356 357 356 353 356
191 185 181 179 174 171 165 156 148 142 139 143 144 136 124 119 118 112 97 83 78 73 54 26 7 16 25 19 357 341 358 1 359 1 4 1 1 1 2 2 2 1 0 1
158 159 161 156 153 152 147 143 141 140 144 145 138 132 127 123 120 116 109 98 79 55 37 23 17 22 17 2 347 342 360 2 1 3 5 4 1 2 3 4 3 2 3 3
139 140 140 141 141 140 141 142 142 143 143 142 141 137 132 128 123 119 118 113 96 45 358 13 35 28 11 346 330 342 358 360 2 3 3 0 358 358 359 0 359 360 0 359
139 139 140 140 140 142 143 143 143 142 141 139 137 136 134 133 126 114 103 104 107 64 358 29 47 17 352 339 323 333 347 354 357 357 356 353 350 349 351 352 351 352 352 350
149 149 150 151 152 150 145 144 145 144 144 144 144 143 138 126 129 133 129 115 105 67 4 42 17 348 341 330 319 330 342 353 356 353 348 342 340 341 342 343 342 341 340 339
158 158 159 160 157 153 152 148 144 144 143 140 136 133 133 135 134 125 119 129 135 162 279 183 307 319 320 306 314 335 344 348 348 344 333 326 329 334 333 332 332 332 331 330
165 165 165 164 163 160 155 150 149 148 147 146 147 150 154 138 130 120 119 137 157 203 253 256 280 291 290 299 331 340 333 325 322 315 311 322 328 329 329 330 330 328 325 324
169 167 166 172 165 154 154 156 156 156 159 158 159 160 153 140 141 152 176 198 203 213 244 258 267 273 289 332 333 318 310 316 324 328 332 331 330 333 330 329 326 323 321 322
169 163 160 168 154 157 160 160 160 165 167 165 164 164 161 157 161 170 184 218 237 243 266 287 299 309 313 308 300 304 314 325 329 330 328 327 327 325 325 324 321 319 320 320
Height
1495 1496 1499 1502 1505 1508 1513 1512 1515 1510 1509 1506 1505 1507 1509 1510 1512 1513 1514 1515 1516 1516 1517 1517 1517 1516 1516 1515 1514 1513 1512 1511 1509 1507 1505 1503 1501 1498 1496 1494 1492 1489 1487 1485
1497 1496 1499 1503 1502 1504 1507 1508 1509 1508 1507 1502 1504 1506 1507 1508 1510 1511 1512 1513 1514 1515 1515 1516 1516 1515 1515 1514 1514 1513 1512 1510 1509 1507 1505 1503 1501 1499 1496 1494 1492 1490 1488 1485
1501 1494 1499 1505 1495 1498 1501 1500 1503 1508 1504 1501 1503 1504 1506 1507 1508 1509 1510 1511 1512 1513 1514 1514 1514 1514 1514 1514 1513 1513 1512 1510 1508 1507 1505 1503 1501 1499 1496 1494 1492 1490 1488 1486
1499 1500 1514 1495 1481 1486 1493 1495 1496 1498 1499 1500 1502 1504 1505 1506 1507 1508 1509 1510 1511 1512 1512 1513 1513 1513 1513 1512 1512 1512 1511 1510 1508 1506 1504 1502 1500 1498 1496 1494 1492 1490 1488 1486
1499 1501 1495 1489 1484 1486 1492 1494 1492 1494 1496 1499 1501 1502 1503 1505 1506 1507 1508 1508 1509 1510 1511 1512 1512 1512 1512 1512 1511 1511 1510 1509 1508 1506 1504 1502 1500 1498 1497 1494 1492 1490 1488 1486
1499 1506 1503 1485 1481 1484 1491 1496 1489 1492 1495 1498 1499 1501 1504 1504 1505 1506 1507 1507 1508 1509 1510 1511 1511 1511 1511 1511 1511 1510 1508 1508 1507 1505 1503 1502 1500 1498 1496 1494 1492 1490 1488 1486
1504 1502 1489 1483 1483 1487 1501 1495 1487 1491 1494 1497 1498 1501 1503 1504 1504 1505 1506 1506 1507 1508 1509 1509 1510 1510 1510 1510 1510 1508 1507 1506 1505 1504 1502 1501 1499 1497 1495 1494 1492 1490 1488 1486
1497 1502 1495 1483 1484 1488 1489 1487 1489 1491 1494 1496 1498 1500 1502 1503 1504 1504 1505 1505 1506 1507 1507 1508 1508 1508 1508 1508 1507 1506 1505 1504 1503 1502 1501 1500 1498 1496 1494 1493 1491 1489 1488 1486
1482 1486 1481 1481 1483 1485 1486 1487 1489 1492 1494 1496 1498 1499 1501 1502 1502 1503 1504 1504 1505 1505 1506 1506 1506 1506 1506 1506 1505 1504 1503 1502 1501 1500 1498 1497 1496 1494 1493 1491 1490 1488 1487 1485
1475 1476 1478 1480 1482 1484 1486 1487 1489 1491 1493 1495 1496 1498 1499 1500 1501 1502 1503 1503 1503 1504 1504 1504 1505 1504 1504 1503 1503 1502 1501 1500 1498 1497 1496 1495 1494 1492 1491 1489 1488 1487 1485 1483
1474 1474 1477 1478 1480 1482 1484 1486 1488 1490 1491 1493 1495 1496 1498 1499 1499 1500 1501 1501 1502 1502 1502 1502 1503 1502 1501 1500 1500 1499 1498 1497 1496 1495 1493 1492 1491 1490 1488 1487 1486 1484 1482 1481
1471 1469 1471 1473 1475 1478 1481 1483 1485 1487 1489 1491 1493 1494 1496 1497 1497 1498 1499 1500 1500 1500 1500 1500 1500 1499 1498 1497 1496 1496 1495 1494 1493 1492 1491 1489 1487 1486 1484 1483 1482 1481 1479 1478
1464 1465 1466 1467 1471 1474 1478 1480 1483 1485 1487 1489 1490 1492 1493 1494 1496 1497 1497 1498 1498 1498 1498 1498 1497 1496 1495 1494 1493 1492 1492 1491 1490 1488 1487 1485 1484 1482 1481 1480 1478 1477 1476 1474
1460 1462 1465 1467 1469 1472 1475 1478 1480 1482 1484 1486 1488 1490 1491 1492 1493 1494 1495 1496 1496 1496 1496 1495 1495 1494 1493 1491 1490 1489 1488 1487 1486 1484 1483 1481 1480 1479 1477 1476 1474 1472 1472 1470
1456 1459 1461 1463 1466 1469 1472 1474 1477 1479 1481 1483 1485 1487 1489 1490 1491 1492 1493 1494 1494 1494 1494 1493 1492 1491 1490 1489 1488 1487 1485 1484 1482 1481 1479 1478 1476 1475 1474 1472 1471 1469 1468 1466
1453 1455 1457 1459 1462 1465 1468 1471 1473 1476 1478 1480 1483 1485 1486 1488 1489 1490 1492 1492 1492 1492 1492 1491 1491 1490 1489 1487 1485 1484 1483 1482 1480 1478 1476 1475 1473 1472 1470 1469 1467 1466 1464 1463
1448 1450 1452 1454 1457 1460 1463 1467 1470 1472 1475 1478 1480 1482 1484 1486 1488 1489 1490 1491 1491 1491 1491 1490 1490 1489 1487 1485 1484 1483 1481 1480 1478 1477 1475 1473 1471 1469 1468 1466 1464 1462 1461 1459
1440 1443 1445 1448 1452 1456 1460 1464 1467 1469 1472 1475 1478 1480 1483 1485 1486 1488 1489 1490 1490 1490 1489 1489 1489 1488 1486 1484 1483 1482 1480 1479 1477 1476 1474 1472 1470 1468 1466 1464 1462 1460 1457 1455
1436 1439 1442 1445 1449 1453 1456 1460 1463 1466 1469 1473 1476 1478 1480 1483 1484 1486 1487 1488 1488 1489 1489 1488 1488 1487 1485 1483 1482 1481 1480 1478 1477 1475 1473 1471 1469 1467 1465 1462 1460 1458 1456 1453
1433 1437 1440 1443 1447 1450 1454 1458 1461 1464 1468 1471 1474 1476 1479 1481 1483 1484 1485 1486 1487 1487 1487 1487 1486 1485 1484 1482 1481 1480 1479 1478 1476 1475 1473 1470 1468 1466 1464 1462 1459 1457 1454 1452
1433 1436 1439 1442 1446 1450 1453 1456 1460 1463 1466 1469 1472 1474 1477 1479 1481 1483 1484 1485 1485 1486 1486 1486 1485 1484 1483 1482 1481 1480 1479 1478 1476 1474 1472 1470 1468 1466 1464 1461 1459 1456 1453 1450
1435 1437 1440 1443 1446 1450 1453 1456 1459 1462 1465 1468 1471 1473 1475 1478 1480 1481 1482 1483 1484 1485 1485 1485 1484 1483 1482 1481 1480 1480 1479 1477 1475 1474 1472 1470 1468 1465 1463 1460 1458 1455 1452 1449
1437 1439 1442 1445 1448 1450 1453 1456 1459 1461 1464 1467 1469 1472 1474 1476 1478 1480 1481 1482 1483 1483 1483 1483 1482 1482 1481 1479 1479 1479 1478 1476 1475 1473 1471 1469 1466 1464 1462 1459 1456 1453 1450 1447
1438 1440 1443 1446 1449 1451 1453 1456 1458 1461 1463 1466 1469 1471 1473 1475 1477 1478 1479 1480 1481 1481 1482 1481 1481 1480 1479 1478 1478 1477 1476 1475 1473 1471 1469 1467 1465 1462 1460 1457 1454 1451 1448 1444
1438 1441 1443 1446 1448 1450 1453 1455 1458 1460 1463 1465 1467 1470 1472 1474 1475 1477 1478 1478 1479 1479 1479 1479 1479 1478 1477 1477 1476 1475 1474 1472 1471 1469 1466 1464 1462 1459 1457 1454 1451 1447 1444 1441
1438 1440 1443 1445 1447 1449 1451 1454 1456 1459 1461 1464 1466 1468 1470 1472 1473 1474 1476 1476 1477 1477 1477 1477 1477 1476 1476 1475 1474 1472 1471 1470 1468 1466 1464 1461 1459 1456 1453 1450 1447 1443 1440 1436
1437 1439 1441 1444 1446 1448 1450 1452 1454 1457 1459 1462 1464 1466 1468 1470 1471 1472 1473 1474 1475 1475 1475 1475 1474 1474 1473 1472 1471 1470 1468 1467 1465 1462 1460 1457 1455 1452 1449 1445 1442 1439 1435 1431